Details for WeGo Airways at EGLC




Go Back


Latest METAR
Local Time

EGLC 261320Z AUTO 09020KT 9999 FEW031 25/16 Q1018

26/05/2018, 14:47:17

Description
Results
WeGo Airways Logo
Number of Pilots based at EGLC
0 Pilots Based here
Number of WeGo Airways Flights Departed from EGLC
3 Flights Departed
Number of WeGo Airways Flights Arrived at EGLC
2 Flights Arrived
Number of WeGo Airways Schedules Departing from EGLC
1 Schedules
Number of WeGo Airways Schedules Arriving at EGLC
1 Schedules
Number of WeGo Airways Schedules Departing from EGLC availible today
1 Schedules Today
Number of WeGo Airways Schedules Arriving at EGLC availible today
1 Schedules Today
Average Landing Rate at EGLC
-408 fpm
WeGo Airways Average Landing Rate at EGLC
-520 fpm
Total Fuel Purchased at EGLC by WeGo Airways
36.29 kgs / 80.00 lbs

Pilots Based at EGLC


Pilot ID
Pilot Name
Pilot Rank
No. of Flights
No. of Flying Hours
There are no pilots assigned to this hub!   Will you be the first?
Content